Weather History for Guthrie, OK

Change the Weather History Date:

Thursday, October 11, 2012

  Actual Average Record
Temperature  
Mean Temperature 71 °F -  
Max Temperature 81 °F 77 °F 94 °F (1962)
Min Temperature 62 °F 50 °F 35 °F (1948)
Cooling Degree Days 6    
Growing Degree Days 21 (Base 50)    
Moisture  
Dew Point 58 °F    
Average Humidity 66    
Maximum Humidity 81    
Minimum Humidity 46    
Precipitation  
Precipitation 0.00 in - - ()
Sea Level Pressure  
Sea Level Pressure 30.07 in    
Wind  
Wind Speed 8 mph (South)    
Max Wind Speed 18 mph    
Max Gust Speed 24 mph    
Visibility 9 miles    
Events      
Averages and records for this station are not official NWS values.
T = Trace of Precipitation, MM = Missing Value Source: NWS Daily Summary

Daily Weather History Graph

Daily Weather History Graph

Search for Another Location

Airport:

Trip Planner

Search our weather history database for the weather conditions in past years. The results will help you decide how hot, cold, wet, or windy it might be!

Date:

Astronomy

Oct. 11, 2012 Rise Set
Actual Time 7:33 AM CDT 6:58 PM CDT
Civil Twilight 7:07 AM CDT 7:24 PM CDT
Nautical Twilight 6:37 AM CDT 7:53 PM CDT
Astronomical Twilight 6:08 AM CDT 8:23 PM CDT
Moon 3:20 AM CDT (10/11) 4:29 PM CDT (10/11)
Length of Visible Light 12h 16m
Length of Day
11h 25m
Waning Crescent, 18% of the Moon is Illuminated
Oct 11
Waning Crescent
Oct 15
New
Oct 21
First Quarter
Oct 29
Full
Nov 6
Last Quarter

Hourly Weather History & Observations

Time (CDT) Temp. Heat Index Dew Point Humidity Pressure Visibility Wind Dir Wind Speed Gust Speed Precip Events Conditions
12:53 AM 62.1 °F - 41.0 °F 46% 30.11 in 10.0 mi South 4.6 mph - N/A   Overcast
1:53 AM 63.0 °F - 42.1 °F 46% 30.09 in 10.0 mi Calm Calm - N/A   Overcast
2:53 AM 62.1 °F - 43.0 °F 50% 30.09 in 10.0 mi Calm Calm - N/A   Overcast
3:53 AM 62.1 °F - 45.0 °F 53% 30.08 in 10.0 mi South 5.8 mph - N/A   Overcast
4:53 AM 63.0 °F - 46.9 °F 56% 30.08 in 10.0 mi South 3.5 mph - N/A   Overcast
5:53 AM 62.1 °F - 48.9 °F 62% 30.07 in 10.0 mi SSE 5.8 mph - N/A   Overcast
6:04 AM 62.6 °F - 50.0 °F 63% 30.09 in 10.0 mi South 5.8 mph - N/A   Overcast
6:33 AM 62.6 °F - 51.8 °F 68% 30.09 in 10.0 mi South 6.9 mph - N/A   Overcast
6:53 AM 63.0 °F - 52.0 °F 67% 30.08 in 10.0 mi South 10.4 mph - N/A   Overcast
7:53 AM 64.0 °F - 53.1 °F 67% 30.10 in 10.0 mi South 6.9 mph - N/A   Overcast
8:53 AM 64.9 °F - 55.9 °F 73% 30.11 in 9.0 mi SSW 5.8 mph - N/A   Overcast
10:42 AM 66.2 °F - 59.0 °F 78% 30.12 in 7.0 mi SSW 11.5 mph - N/A   Overcast
10:53 AM 66.9 °F - 59.0 °F 76% 30.12 in 7.0 mi SSW 10.4 mph - N/A   Overcast
11:53 AM 70.0 °F - 61.0 °F 73% 30.10 in 7.0 mi South 11.5 mph - N/A   Overcast
12:17 PM 71.6 °F - 62.6 °F 73% 30.10 in 8.0 mi SSW 15.0 mph 20.7 mph N/A   Overcast
12:28 PM 73.4 °F - 62.6 °F 69% 30.09 in 9.0 mi South 13.8 mph - N/A   Overcast
12:53 PM 73.9 °F - 63.0 °F 68% 30.07 in 8.0 mi SSW 17.3 mph 24.2 mph N/A   Overcast
1:17 PM 73.4 °F - 62.6 °F 69% 30.08 in 8.0 mi SSW 17.3 mph 21.9 mph N/A   Overcast
1:53 PM 75.0 °F - 64.0 °F 69% 30.04 in 10.0 mi South 18.4 mph 24.2 mph N/A   Overcast
2:53 PM 77.0 °F - 64.0 °F 64% 30.01 in 10.0 mi South 17.3 mph 24.2 mph N/A   Overcast
3:53 PM 78.1 °F - 64.9 °F 64% 29.99 in 10.0 mi SSW 17.3 mph 23.0 mph N/A   Overcast
4:33 PM 80.6 °F 82.7 °F 66.2 °F 61% 30.00 in 10.0 mi South 16.1 mph 23.0 mph N/A   Mostly Cloudy
5:53 PM 79.0 °F - 64.9 °F 62% 29.98 in 10.0 mi SSW 15.0 mph 24.2 mph N/A   Scattered Clouds
6:53 PM 78.1 °F - 66.0 °F 66% 29.99 in 10.0 mi South 12.7 mph - N/A   Mostly Cloudy
8:53 PM 73.9 °F - 66.0 °F 76% 30.04 in 10.0 mi SSE 5.8 mph - N/A   Clear
9:53 PM 72.0 °F - 66.0 °F 81% 30.05 in 10.0 mi SE 5.8 mph - N/A   Clear
10:53 PM 72.0 °F - 66.0 °F 81% 30.07 in 10.0 mi SSE 4.6 mph - N/A   Clear
11:53 PM 72.0 °F - 66.0 °F 81% 30.07 in 10.0 mi South 10.4 mph - N/A   Scattered Clouds